This demonstration page uses our WeatherBlox Daily Observations layout. Learn more.

38.88101, -77.10428

Hourly Observations for July 8, 2019

Temp ( °F °C ) Dew Point ( °F °C ) Humidity (%) Winds ( mph kmh ) Pressure ( in mb ) Visibility ( mi km ) Precip ( " mm )
12:10 am 00:10 Cloudy 79 26.1 73 22.8 82 82 ESE 12 19 29.88 1012 10 16.09344 0 0
12:44 am 00:44 Cloudy 78 25.6 73 22.8 85 85 ESE 7 11 29.88 1012 10 16.09344 0 0
12:52 am 00:52 Cloudy 79 26.1 73 22.8 82 82 E 6 9 29.85 1011 10 16.09344 0 0
1:52 am 01:52 Cloudy 78 25.6 73 22.8 85 85 E 12 19 29.85 1011 10 16.09344 0 0
2:13 am 02:13 Cloudy 78 25.6 73 22.8 85 85 E 10 17 29.88 1012 10 16.09344 0 0
3:52 am 03:52 Cloudy 78 25.6 73 22.8 85 85 E 8 13 29.83 1010 10 16.09344 0 0
4:52 am 04:52 Cloudy 77 25 73 22.8 88 88 E 8 13 29.83 1010 10 16.09344 0 0
5:52 am 05:52 Cloudy 77 25 73 22.8 88 88 E 9 15 29.83 1010 10 16.09344 0 0
6:13 am 06:13 Cloudy 77 25 73 22.8 88 88 E 8 13 29.85 1011 10 16.09344 0 0
6:52 am 06:52 Cloudy 77 25 73 22.8 88 88 SE 9 15 29.85 1011 10 16.09344 0 0
7:52 am 07:52 Cloudy 78 25.6 73 22.8 85 85 SE 9 15 29.83 1010 10 16.09344 0 0
8:47 am 08:47 Cloudy with Thunderstorms 79 26 73 23 84 84 VRB 6 9 29.88 1012 10 16.09344 0.001 0.001
8:52 am 08:52 Cloudy with Thunderstorms 77 25 73 22.8 88 88 N 14 22 29.85 1011 10 16.09344 0.001 0.001
8:55 am 08:55 Cloudy with Heavy Thunderstorms 77 25 73 22.8 88 88 N 16 26 29.88 1012 0.75 1.207008 0.001 0.001
8:59 am 08:59 Cloudy with Heavy Thunderstorms 75 23.9 73 22.8 94 94 N 14 22 29.88 1012 0.5 0.804672 0.18 4.572
9:06 am 09:06 Cloudy with Heavy Thunderstorms 75 23.9 73 22.8 94 94 NNE 14 22 29.88 1012 0.25 0.402336 0.69 17.526
9:28 am 09:28 Cloudy with Heavy Thunderstorms 74 23.3 73 22.8 97 97 NE 14 22 29.88 1012 0.25 0.402336 2.06 52.324
9:49 am 09:49 Cloudy with Heavy Thunderstorms 73 23 73 23 100 100 ESE 13 20 29.88 1012 1 1.609344 3.26 82.804
9:52 am 09:52 Cloudy with Heavy Thunderstorms 74 23.3 72 22.2 94 94 ESE 9 15 29.88 1012 1.5 2.414016 3.3 83.82
9:58 am 09:58 Cloudy with Heavy Thunderstorms 74 23.3 72 22.2 94 94 E 9 15 29.88 1012 3 4.828032 0.02 0.508
10:05 am 10:05 Cloudy with Heavy Thunderstorms 74 23.3 72 22.2 94 94 NE 7 11 29.91 1013 3 4.828032 0.03 0.762
10:09 am 10:09 Cloudy with Light Rain 74 23.3 72 22.2 94 94 NE 8 13 29.88 1012 3 4.828032 0.04 1.016
10:15 am 10:15 Cloudy with Rain 75 23.9 72 22.2 90 90 ENE 8 13 29.88 1012 1.5 2.414016 0.05 1.27
10:25 am 10:25 Cloudy with Light Rain 73 22.8 69 20.6 87 87 ESE 9 15 29.88 1012 4 6.437376 0.1 2.54
10:40 am 10:40 Cloudy with Light Rain 73 22.8 69 20.6 87 87 E 7 11 29.88 1012 7 11.265408 0.1 2.54
10:52 am 10:52 Cloudy with Light Rain 73 22.8 70 21.1 90 90 SE 3 6 29.88 1012 10 16.09344 0.11 2.794
11:27 am 11:27 Cloudy 76 24.4 73 22.8 91 91 NE 13 20 29.91 1013 10 16.09344 0.001 0.001
12:40 pm 12:40 Cloudy with Light Rain 75 23.9 71 21.7 88 88 ENE 14 22 29.91 1013 5 8.04672 0.001 0.001
12:52 pm 12:52 Cloudy with Light Rain 75 23.9 71 21.7 88 88 ENE 17 28 29.91 1013 3 4.828032 0.001 0.001
1:35 pm 13:35 Cloudy with Light Rain 75 23.9 71 21.7 88 88 ENE 14 22 29.94 1014 2.5 4.02336 0.01 0.254
1:52 pm 13:52 Cloudy with Light Rain 74 23.3 70 21.1 88 88 ENE 17 28 29.91 1013 2.5 4.02336 0.03 0.762
1:56 pm 13:56 Cloudy with Light Rain 74 23.3 70 21.1 88 88 ENE 20 31 29.94 1014 5 8.04672 0.001 0.001
2:13 pm 14:13 Cloudy 75 23.9 70 21.1 84 84 ENE 17 28 29.94 1014 10 16.09344 0.001 0.001
2:25 pm 14:25 Cloudy 76 24.4 70 21.1 82 82 ENE 17 28 29.94 1014 10 16.09344 0.001 0.001
2:41 pm 14:41 Cloudy 76 24.4 69 20.6 79 79 ENE 20 31 29.94 1014 10 16.09344 0.001 0.001
2:52 pm 14:52 Cloudy 76 24.4 68 20 77 77 ENE 17 28 29.94 1014 10 16.09344 0.001 0.001
3:10 pm 15:10 Cloudy 75 23.9 68 20 79 79 ENE 15 24 29.97 1015 10 16.09344 0 0
3:33 pm 15:33 Cloudy 76 24.4 67 19.4 74 74 ENE 10 17 29.94 1014 10 16.09344 0 0
3:52 pm 15:52 Cloudy 76 24.4 66 18.9 72 72 ENE 10 17 29.94 1014 10 16.09344 0 0
4:52 pm 16:52 Mostly Cloudy 78 25.6 66 18.9 67 67 NE 12 19 29.91 1013 10 16.09344 0 0
5:52 pm 17:52 Cloudy 77 25 65 18.3 66 66 NE 9 15 29.94 1014 10 16.09344 0 0
6:52 pm 18:52 Mostly Cloudy 77 25 63 17.2 62 62 ENE 15 24 29.94 1014 10 16.09344 0 0
7:52 pm 19:52 Mostly Cloudy 77 25 64 17.8 64 64 NE 10 17 29.97 1015 10 16.09344 0 0
8:52 pm 20:52 Mostly Cloudy 75 23.9 65 18.3 71 71 ENE 12 19 30 1016 10 16.09344 0 0
9:52 pm 21:52 Partly Cloudy 74 23.3 65 18.3 74 74 ENE 6 9 30 1016 10 16.09344 0 0
10:52 pm 22:52 Partly Cloudy 73 22.8 65 18.3 76 76 ENE 6 9 30 1016 10 16.09344 0 0
11:52 pm 23:52 Partly Cloudy 72 22.2 65 18.3 79 79 ENE 3 6 30 1016 10 16.09344 0 0

Powered by AerisWeather